Location: Berville
(49.1893°N, 2.0748°E)
Time: 06:00:16
(UTC+00:00)

Resurs 01 Rocket - Pass Details

Date: 08 February 2023
Orbit: 632 x 643 km, 97.9° (Epoch: 21 March)

Event Time Altitude Azimuth Distance (km) Brightness Sun altitude
Exits shadow 19:17:36 15° 14° (NNE) 1,732 3.7 -22.9°
Drops below altitude 10° 19:18:34 10° 6° (N) 2,052 4.2 -23.0°
Sets 19:21:00 0° 355° (N) 2,967 5.2 -23.4°
